Location: Unspecified
(0.0000°N, 0.0000°E)
Time: 22:58:13
(UTC+00:00)

Transit 2A - All Passes

Search period start: 19 November 2019 00:00
Search period end: 29 November 2019 00:00
Orbit: 601 x 957 km, 66.7° (Epoch: 18 November)

Date Brightness Start Highest point End Pass type
(mag) Time Alt. Az. Time Alt. Az. Time Alt. Az.
19 Nov - 09:57:52 10° S 10:03:24 40° ESE 10:08:29 10° NE daylight
19 Nov - 11:43:16 10° WSW 11:46:13 14° WNW 11:49:03 10° NW daylight
19 Nov - 22:31:34 10° NNW 22:36:17 72° WSW 22:41:33 10° SSE night (unlit)
20 Nov - 09:24:30 10° SSE 09:29:15 25° ESE 09:33:41 10° ENE daylight
20 Nov - 11:07:37 10° SW 11:12:12 24° WNW 11:16:28 10° NNW daylight
20 Nov - 21:57:32 10° N 22:02:13 65° ENE 22:07:27 10° SSE night (unlit)
21 Nov - 08:51:48 10° SSE 08:55:04 15° ESE 08:58:11 10° ENE daylight
21 Nov - 10:32:45 10° SW 10:38:11 40° WNW 10:43:08 10° N daylight
21 Nov - 21:23:50 10° N 21:28:12 36° ENE 21:32:58 10° SE night (unlit)
21 Nov - 23:09:15 10° W 23:11:16 12° WSW 23:13:23 10° SW night (unlit)
22 Nov - 09:58:18 10° SSW 10:04:09 67° WNW 10:09:25 10° NNE daylight
22 Nov - 20:50:35 10° NNE 20:54:11 21° ENE 20:58:02 10° ESE night (unlit)
22 Nov - 22:33:23 10° WNW 22:37:05 21° WSW 22:41:04 10° SSW night (unlit)
23 Nov - 09:24:11 10° SSW 09:30:05 75° ESE 09:35:24 10° NNE daylight
23 Nov - 20:18:21 10° NE 20:20:11 12° ENE 20:22:02 10° E night (unlit)
23 Nov - 21:58:29 10° NW 22:02:55 36° WSW 22:07:48 10° S night (unlit)
24 Nov - 08:50:21 10° S 08:55:58 45° ESE 09:01:03 10° NE daylight
24 Nov - 10:36:28 10° W 10:38:44 12° WNW 10:40:55 10° NW daylight
24 Nov - 21:24:03 10° NNW 21:28:48 64° WSW 21:34:06 10° S night (unlit)
25 Nov - 08:16:55 10° SSE 08:21:49 27° ESE 08:26:20 10° NE daylight
25 Nov - 10:00:29 10° WSW 10:04:43 21° WNW 10:08:41 10° NNW daylight
25 Nov - 20:49:57 10° NNW 20:54:43 74° ENE 21:00:03 10° SSE night (unlit)
26 Nov - 07:44:02 10° SSE 07:47:38 17° ESE 07:51:02 10° ENE daylight
26 Nov - 09:25:29 10° SW 09:30:42 35° WNW 09:35:29 10° N daylight
26 Nov - 20:16:11 10° N 20:20:41 41° ENE 20:25:40 10° SE night (unlit)
26 Nov - 22:02:23 10° W 22:03:49 11° WSW 22:05:17 10° SW night (unlit)
27 Nov - 08:50:56 10° SSW 08:56:41 59° WNW 09:01:50 10° N daylight
27 Nov - 19:42:48 10° NNE 19:46:41 24° ENE 19:50:51 10° SE night (unlit)
27 Nov - 21:26:04 10° WNW 21:29:37 19° WSW 21:33:24 10° SSW night (unlit)
28 Nov - 08:16:45 10° SSW 08:22:37 83° ESE 08:27:52 10° NNE daylight
28 Nov - 19:10:11 10° NE 19:12:40 14° ENE 19:15:15 10° ESE night (unlit)
28 Nov - 20:51:04 10° NW 20:55:27 33° WSW 21:00:15 10° S night (unlit)
